Location: Dillon
(41.1766°N, 107.0923°W)
Time: 09:13:30
(UTC+00:00)

QB50P2 - Pass Details

Date: 26 June 2022
Orbit: 590 x 605 km, 97.9° (Epoch: 09 August)

Event Time Altitude Azimuth Distance (km) Brightness Sun altitude
Rises 07:17:58 0° 35° (NE) 2,853 ? -25.4°
Reaches altitude 10° 07:21:19 10° 64° (ENE) 1,947 ? -25.4°
Enters shadow 07:23:09 13° 90° (E) 1,764 ? -25.4°
